This is the latest recevied weather packets stored in our database for station/object IW0HP-3. If no packets are shown the sender has not sent any weather packets the latest 10 day(s).
| Time | Temp. | Humidity | Pressure | Rain* | Wind** | Luminosity | Snow |
|---|---|---|---|---|---|---|---|
| 1777639549 | 20° C | 23% | 1022.3 hPa | - | - | - | - |
| 1777638345 | 20° C | 27% | 1021.9 hPa | - | - | - | - |
| 1777637140 | 20° C | 27% | 1022 hPa | - | - | - | - |
| 1777635936 | 19.44° C | 26% | 1022.3 hPa | - | - | - | - |
| 1777634731 | 19.44° C | 27% | 1022.7 hPa | - | - | - | - |
| 1777633527 | 18.89° C | 27% | 1023 hPa | - | - | - | - |
| 1777632322 | 18.89° C | 29% | 1022.8 hPa | - | - | - | - |
| 1777631118 | 18.33° C | 29% | 1022.9 hPa | - | - | - | - |
| 1777629914 | 18.33° C | 30% | 1022.9 hPa | - | - | - | - |
| 1777628709 | 17.78° C | 31% | 1022.9 hPa | - | - | - | - |
| 1777627505 | 17.78° C | 32% | 1022.9 hPa | - | - | - | - |
| 1777626300 | 17.78° C | 30% | 1023.3 hPa | - | - | - | - |
| 1777625096 | 17.22° C | 31% | 1023.2 hPa | - | - | - | - |
| 1777623891 | 16.67° C | 35% | 1022.9 hPa | - | - | - | - |
| 1777622687 | 16.11° C | 37% | 1022.8 hPa | - | - | - | - |
| 1777621482 | 16.11° C | 38% | 1022.9 hPa | - | - | - | - |
| 1777620277 | 15.56° C | 42% | 1022.6 hPa | - | - | - | - |
| 1777619073 | 14.44° C | 43% | 1022.6 hPa | - | - | - | - |
| 1777617868 | 13.89° C | 45% | 1022.4 hPa | - | - | - | - |
| 1777616664 | 13.33° C | 45% | 1022.4 hPa | - | - | - | - |
| 1777615460 | 13.89° C | 45% | 1022.6 hPa | - | - | - | - |
| 1777614255 | 13.33° C | 45% | 1022.4 hPa | - | - | - | - |
| 1777613050 | 12.78° C | 47% | 1022.3 hPa | - | - | - | - |
| 1777611846 | 12.78° C | 47% | 1022.2 hPa | - | - | - | - |
| 1777610642 | 12.22° C | 48% | 1022.1 hPa | - | - | - | - |
* Rain since midnight (hover to see other rain measurements)
** Current wind speed in m/s (hover to see current wind gust speed)